JBU7532 KLAX-KLAS

Flight info

Callsign JBU7532
Flight time 0h 52m
Altitude 29000
Route ORCKA5 MISEN RNDRZ4
Aircraft A20N/M-SDE2E3FGHIRWXY/LB1

Departure

Time 2026-05-06 21:56
Airport Los Angeles International Airport (KLAX)

Arrival

Time 2026-05-06 22:48
Airport Harry Reid International Airport (KLAS)
Time Latitude Longitude Altitude Speed Heading
2026-05-06 21:42 33.93981 -118.40416 125 ft 0 kts 352°
2026-05-06 21:44 33.93980 -118.40416 125 ft 3 kts 352°
2026-05-06 21:44 33.93976 -118.40416 125 ft 0 kts 352°
2026-05-06 21:45 33.93974 -118.40415 125 ft 4 kts 352°
2026-05-06 21:46 33.93927 -118.40418 122 ft 6 kts 37°
2026-05-06 21:46 33.93911 -118.40452 123 ft 0 kts 80°
2026-05-06 21:46 33.93911 -118.40451 120 ft 0 kts 80°
2026-05-06 21:49 33.93913 -118.40438 123 ft 0 kts 80°
2026-05-06 21:50 33.93914 -118.40428 122 ft 10 kts 80°
2026-05-06 21:50 33.93934 -118.40283 125 ft 23 kts 83°
2026-05-06 21:50 33.93954 -118.40059 123 ft 30 kts 82°
2026-05-06 21:51 33.93927 -118.39793 121 ft 34 kts 115°
2026-05-06 21:51 33.93930 -118.39498 125 ft 38 kts 83°
2026-05-06 21:51 33.93965 -118.39119 123 ft 49 kts 83°
2026-05-06 21:51 33.94009 -118.38705 123 ft 38 kts 83°
2026-05-06 21:52 33.94027 -118.38536 121 ft 22 kts 83°
2026-05-06 21:52 33.94050 -118.38321 124 ft 28 kts 82°
2026-05-06 21:52 33.94074 -118.38072 125 ft 26 kts 99°
2026-05-06 21:52 33.94070 -118.38054 125 ft 0 kts 109°
2026-05-06 21:53 33.94058 -118.38025 125 ft 10 kts 123°
2026-05-06 21:53 33.94032 -118.37993 125 ft 4 kts 146°
2026-05-06 21:53 33.94071 -118.38016 125 ft 1 kts 161°
2026-05-06 21:53 33.93992 -118.38022 122 ft 2 kts 205°
2026-05-06 21:54 33.93989 -118.38034 122 ft 17 kts 229°
2026-05-06 21:54 33.93966 -118.38163 123 ft 0 kts 267°
2026-05-06 21:55 33.93957 -118.38261 125 ft 49 kts 263°
2026-05-06 21:55 33.93879 -118.39037 124 ft 136 kts 262°
2026-05-06 21:55 33.93737 -118.40388 529 ft 175 kts 262°
2026-05-06 21:56 33.93579 -118.41931 1259 ft 201 kts 262°
2026-05-06 21:56 33.93375 -118.43723 2015 ft 232 kts 261°
2026-05-06 21:56 33.93127 -118.45686 3089 ft 233 kts 262°
2026-05-06 21:56 33.92850 -118.47627 3923 ft 248 kts 261°
2026-05-06 21:57 33.92520 -118.49779 4598 ft 271 kts 261°
2026-05-06 21:57 33.92166 -118.52025 5121 ft 277 kts 261°
2026-05-06 21:57 33.91806 -118.54322 5635 ft 280 kts 261°
2026-05-06 21:57 33.91443 -118.56637 6155 ft 284 kts 261°
2026-05-06 21:58 33.91080 -118.58966 6654 ft 286 kts 260°
2026-05-06 21:58 33.90341 -118.61205 7152 ft 292 kts 236°
2026-05-06 21:58 33.88856 -118.62873 7661 ft 297 kts 209°
2026-05-06 21:58 33.87593 -118.63494 8005 ft 297 kts 193°
2026-05-06 21:59 33.84913 -118.64242 8698 ft 301 kts 191°
2026-05-06 21:59 33.82850 -118.64818 9235 ft 304 kts 191°
2026-05-06 21:59 33.80752 -118.65372 9776 ft 311 kts 186°
2026-05-06 21:59 33.78619 -118.65221 10322 ft 312 kts 160°
2026-05-06 22:00 33.76659 -118.63995 10940 ft 328 kts 137°
2026-05-06 22:00 33.75189 -118.61864 11549 ft 333 kts 114°
2026-05-06 22:00 33.74519 -118.59236 12182 ft 330 kts 92°
2026-05-06 22:00 33.74748 -118.56522 12825 ft 327 kts 70°
2026-05-06 22:01 33.75837 -118.54148 13477 ft 328 kts 48°
2026-05-06 22:01 33.76907 -118.52978 13875 ft 329 kts 34°
2026-05-06 22:01 33.79006 -118.51816 14470 ft 333 kts 18°
2026-05-06 22:01 33.81232 -118.51046 15061 ft 335 kts 18°
2026-05-06 22:02 33.83451 -118.50108 15658 ft 337 kts 23°
2026-05-06 22:02 33.85586 -118.48942 16272 ft 339 kts 27°
2026-05-06 22:02 33.87682 -118.47607 16901 ft 342 kts 29°
2026-05-06 22:02 33.89758 -118.46183 17542 ft 345 kts 30°
2026-05-06 22:03 33.91762 -118.44593 18197 ft 347 kts 38°
2026-05-06 22:03 33.93543 -118.42600 18801 ft 351 kts 46°
2026-05-06 22:03 33.95026 -118.40293 19368 ft 354 kts 54°
2026-05-06 22:03 33.96400 -118.37820 19963 ft 357 kts 54°
2026-05-06 22:04 33.97801 -118.35334 20568 ft 360 kts 54°
2026-05-06 22:04 33.99207 -118.32852 21173 ft 369 kts 54°
2026-05-06 22:04 34.00674 -118.30268 21831 ft 378 kts 54°
2026-05-06 22:04 34.02173 -118.27626 22483 ft 387 kts 54°
2026-05-06 22:05 34.03706 -118.24925 23150 ft 393 kts 54°
2026-05-06 22:05 34.05255 -118.22194 23791 ft 397 kts 54°
2026-05-06 22:05 34.06813 -118.19442 24347 ft 399 kts 54°
2026-05-06 22:05 34.08384 -118.16666 24927 ft 402 kts 54°
2026-05-06 22:06 34.09909 -118.13970 25503 ft 404 kts 54°
2026-05-06 22:06 34.11496 -118.11160 26108 ft 407 kts 54°
2026-05-06 22:06 34.13098 -118.08322 26740 ft 409 kts 54°
2026-05-06 22:06 34.14650 -118.05566 27353 ft 382 kts 54°
2026-05-06 22:07 34.16075 -118.03027 27975 ft 353 kts 54°
2026-05-06 22:07 34.17439 -118.00603 28626 ft 355 kts 54°
2026-05-06 22:07 34.18843 -117.98112 29014 ft 364 kts 54°
2026-05-06 22:07 34.20283 -117.95558 29068 ft 368 kts 54°
2026-05-06 22:08 34.23176 -117.90409 29088 ft 367 kts 54°
2026-05-06 22:08 34.26021 -117.85336 29081 ft 368 kts 54°
2026-05-06 22:09 34.28876 -117.80239 29090 ft 366 kts 54°
2026-05-06 22:09 34.31756 -117.75093 29089 ft 369 kts 54°
2026-05-06 22:10 34.34559 -117.70065 29071 ft 351 kts 54°
2026-05-06 22:10 34.37363 -117.65231 29064 ft 353 kts 52°
2026-05-06 22:11 34.40276 -117.60424 29077 ft 353 kts 52°
2026-05-06 22:11 34.43165 -117.55611 29089 ft 353 kts 52°
2026-05-06 22:12 34.46019 -117.50824 29101 ft 353 kts 52°
2026-05-06 22:12 34.48892 -117.45995 29115 ft 353 kts 52°
2026-05-06 22:13 34.51764 -117.41162 29127 ft 353 kts 52°
2026-05-06 22:13 34.54634 -117.36325 29127 ft 354 kts 52°
2026-05-06 22:14 34.57506 -117.31479 29128 ft 354 kts 53°
2026-05-06 22:14 34.60378 -117.26626 29121 ft 354 kts 53°
2026-05-06 22:15 34.63246 -117.21773 29108 ft 354 kts 53°
2026-05-06 22:15 34.66098 -117.16941 29086 ft 355 kts 53°
2026-05-06 22:16 34.68962 -117.12082 29055 ft 354 kts 53°
2026-05-06 22:16 34.71831 -117.07208 29021 ft 355 kts 53°
2026-05-06 22:17 34.74700 -117.02327 29033 ft 355 kts 53°
2026-05-06 22:17 34.77566 -116.97444 29040 ft 355 kts 53°
2026-05-06 22:18 34.80475 -116.92484 29048 ft 379 kts 53°
2026-05-06 22:18 34.82041 -116.89814 29056 ft 397 kts 53°
2026-05-06 22:18 34.83688 -116.87001 29055 ft 414 kts 53°
2026-05-06 22:19 34.85378 -116.84112 29055 ft 430 kts 53°
2026-05-06 22:19 34.87138 -116.81098 29052 ft 443 kts 53°
2026-05-06 22:19 34.90746 -116.74911 29052 ft 449 kts 53°
2026-05-06 22:20 34.94327 -116.68696 29044 ft 449 kts 54°
2026-05-06 22:20 34.97858 -116.62415 29035 ft 449 kts 54°
2026-05-06 22:21 35.01369 -116.56171 29019 ft 448 kts 54°
2026-05-06 22:21 35.04893 -116.49908 29019 ft 448 kts 54°
2026-05-06 22:22 35.08345 -116.43765 29018 ft 427 kts 54°
2026-05-06 22:22 35.10009 -116.40896 29026 ft 403 kts 51°
2026-05-06 22:22 35.11796 -116.38365 29020 ft 382 kts 46°
2026-05-06 22:23 35.13581 -116.36087 29012 ft 363 kts 46°
2026-05-06 22:23 35.15274 -116.33901 28954 ft 348 kts 46°
2026-05-06 22:23 35.16935 -116.31749 28606 ft 350 kts 46°
2026-05-06 22:23 35.18614 -116.29572 27970 ft 353 kts 46°
2026-05-06 22:24 35.20297 -116.27391 27328 ft 352 kts 46°
2026-05-06 22:24 35.21980 -116.25210 26688 ft 352 kts 46°
2026-05-06 22:24 35.23647 -116.23031 26079 ft 351 kts 47°
2026-05-06 22:24 35.25281 -116.20807 25464 ft 350 kts 47°
2026-05-06 22:25 35.26887 -116.18585 24865 ft 349 kts 47°
2026-05-06 22:25 35.28499 -116.16356 24280 ft 348 kts 47°
2026-05-06 22:25 35.30083 -116.14171 23728 ft 348 kts 47°
2026-05-06 22:25 35.31687 -116.11964 23073 ft 347 kts 47°
2026-05-06 22:26 35.33215 -116.09865 22445 ft 346 kts 47°
2026-05-06 22:26 35.34830 -116.07646 21786 ft 345 kts 47°
2026-05-06 22:26 35.36427 -116.05453 21155 ft 343 kts 47°
2026-05-06 22:26 35.38012 -116.03274 20536 ft 342 kts 47°
2026-05-06 22:27 35.39590 -116.01102 19926 ft 341 kts 47°
2026-05-06 22:27 35.41168 -115.98930 19329 ft 341 kts 47°
2026-05-06 22:27 35.42741 -115.96763 18750 ft 340 kts 47°
2026-05-06 22:27 35.44308 -115.94603 18147 ft 339 kts 47°
2026-05-06 22:28 35.45870 -115.92448 17492 ft 338 kts 47°
2026-05-06 22:28 35.47431 -115.90294 16847 ft 337 kts 47°
2026-05-06 22:28 35.48965 -115.88175 16231 ft 336 kts 47°
2026-05-06 22:28 35.50513 -115.86037 15611 ft 335 kts 47°
2026-05-06 22:29 35.52076 -115.83927 14997 ft 333 kts 43°
2026-05-06 22:29 35.53868 -115.82151 14436 ft 330 kts 39°
2026-05-06 22:29 35.55624 -115.80374 14007 ft 324 kts 39°
2026-05-06 22:29 35.57224 -115.78462 13519 ft 319 kts 51°
2026-05-06 22:30 35.58304 -115.76107 13081 ft 314 kts 62°
2026-05-06 22:30 35.59435 -115.73867 12819 ft 302 kts 53°
2026-05-06 22:30 35.60725 -115.71891 12566 ft 292 kts 49°
2026-05-06 22:30 35.62059 -115.70056 12312 ft 283 kts 47°
2026-05-06 22:31 35.63366 -115.68320 12062 ft 279 kts 46°
2026-05-06 22:31 35.64712 -115.66537 11817 ft 281 kts 46°
2026-05-06 22:31 35.66024 -115.64786 11568 ft 278 kts 47°
2026-05-06 22:31 35.67333 -115.63027 11318 ft 279 kts 47°
2026-05-06 22:32 35.68616 -115.61297 11083 ft 276 kts 47°
2026-05-06 22:32 35.69906 -115.59549 10855 ft 277 kts 47°
2026-05-06 22:32 35.71193 -115.57804 10823 ft 275 kts 47°
2026-05-06 22:32 35.72524 -115.56101 10826 ft 277 kts 41°
2026-05-06 22:33 35.74074 -115.54687 10832 ft 277 kts 31°
2026-05-06 22:33 35.75753 -115.53529 10835 ft 276 kts 29°
2026-05-06 22:33 35.77426 -115.52368 10836 ft 277 kts 29°
2026-05-06 22:33 35.79107 -115.51192 10835 ft 277 kts 29°
2026-05-06 22:34 35.80738 -115.50046 10826 ft 263 kts 29°
2026-05-06 22:34 35.82281 -115.48961 10828 ft 247 kts 29°
2026-05-06 22:34 35.83728 -115.47944 10823 ft 233 kts 29°
2026-05-06 22:34 35.85155 -115.46942 10825 ft 243 kts 28°
2026-05-06 22:35 35.86697 -115.45863 10842 ft 268 kts 29°
2026-05-06 22:35 35.88343 -115.44706 10843 ft 268 kts 28°
2026-05-06 22:35 35.89958 -115.43570 10842 ft 265 kts 28°
2026-05-06 22:35 35.91497 -115.42485 10804 ft 252 kts 28°
2026-05-06 22:36 35.92993 -115.41439 10674 ft 242 kts 28°
2026-05-06 22:36 35.94428 -115.40437 10553 ft 233 kts 28°
2026-05-06 22:36 35.95861 -115.39437 10382 ft 241 kts 28°
2026-05-06 22:36 35.97328 -115.38415 9935 ft 244 kts 27°
2026-05-06 22:37 35.98839 -115.37365 9298 ft 251 kts 28°
2026-05-06 22:37 36.00329 -115.36240 8784 ft 253 kts 39°
2026-05-06 22:37 36.01355 -115.34490 8300 ft 254 kts 69°
2026-05-06 22:37 36.01550 -115.32374 8069 ft 244 kts 93°
2026-05-06 22:38 36.01426 -115.30339 8012 ft 231 kts 94°
2026-05-06 22:38 36.01298 -115.28326 8016 ft 239 kts 93°
2026-05-06 22:38 36.01182 -115.26316 8042 ft 238 kts 93°
2026-05-06 22:38 36.01073 -115.24283 8039 ft 238 kts 92°
2026-05-06 22:39 36.00969 -115.22241 7949 ft 239 kts 92°
2026-05-06 22:39 36.00867 -115.20199 7686 ft 237 kts 92°
2026-05-06 22:39 36.00767 -115.18180 7422 ft 234 kts 92°
2026-05-06 22:39 36.00670 -115.16174 7165 ft 234 kts 92°
2026-05-06 22:40 36.00571 -115.14169 7057 ft 234 kts 93°
2026-05-06 22:40 36.00469 -115.12163 7039 ft 234 kts 93°
2026-05-06 22:40 36.00368 -115.10167 7067 ft 227 kts 93°
2026-05-06 22:40 36.00274 -115.08320 7039 ft 213 kts 93°
2026-05-06 22:41 36.00085 -115.04596 7041 ft 217 kts 92°
2026-05-06 22:41 35.99991 -115.02736 7038 ft 218 kts 92°
2026-05-06 22:41 35.99895 -115.00869 7038 ft 219 kts 92°
2026-05-06 22:42 35.99855 -114.99062 7032 ft 203 kts 89°
2026-05-06 22:42 35.99859 -114.97356 6985 ft 200 kts 88°
2026-05-06 22:42 35.99868 -114.95633 6986 ft 199 kts 89°
2026-05-06 22:42 35.99875 -114.93908 6990 ft 202 kts 88°
2026-05-06 22:43 36.00231 -114.92283 6991 ft 197 kts 55°
2026-05-06 22:43 36.01251 -114.91234 6995 ft 192 kts 28°
2026-05-06 22:43 36.02403 -114.90423 6984 ft 190 kts 28°
2026-05-06 22:43 36.03625 -114.89864 6984 ft 187 kts
2026-05-06 22:44 36.04847 -114.90305 6986 ft 185 kts 328°
2026-05-06 22:44 36.05945 -114.91161 6982 ft 186 kts 327°
2026-05-06 22:44 36.06900 -114.92221 6965 ft 187 kts 303°
2026-05-06 22:44 36.07330 -114.93725 6746 ft 185 kts 278°
2026-05-06 22:45 36.07398 -114.95278 6145 ft 182 kts 268°
2026-05-06 22:45 36.07360 -114.96840 5419 ft 186 kts 269°
2026-05-06 22:45 36.07364 -114.98433 4866 ft 180 kts 269°
2026-05-06 22:45 36.07363 -114.99892 4499 ft 160 kts 269°
2026-05-06 22:46 36.07363 -115.01210 4167 ft 148 kts 269°
2026-05-06 22:46 36.07363 -115.02450 3872 ft 140 kts 269°
2026-05-06 22:46 36.07362 -115.03677 3667 ft 144 kts 269°
2026-05-06 22:46 36.07363 -115.04909 3471 ft 143 kts 269°
2026-05-06 22:47 36.07363 -115.06135 3248 ft 143 kts 269°
2026-05-06 22:47 36.07363 -115.07380 3003 ft 146 kts 270°
2026-05-06 22:47 36.07363 -115.08626 2760 ft 147 kts 269°
2026-05-06 22:47 36.07363 -115.09896 2534 ft 145 kts 269°
2026-05-06 22:48 36.07363 -115.11011 2346 ft 146 kts 268°
2026-05-06 22:48 36.07363 -115.12317 2159 ft 151 kts 269°
2026-05-06 22:48 36.07364 -115.13570 2083 ft 130 kts 270°
2026-05-06 22:48 36.07365 -115.14187 2108 ft 27 kts 276°
2026-05-06 22:49 36.07394 -115.14395 2118 ft 22 kts 288°
2026-05-06 22:49 36.07486 -115.14614 2125 ft 37 kts 310°
2026-05-06 22:49 36.07700 -115.14658 2130 ft 26 kts 356°
2026-05-06 22:49 36.07824 -115.14721 2130 ft 15 kts 331°
2026-05-06 22:50 36.07909 -115.14820 2133 ft 32 kts 329°
2026-05-06 22:50 36.08088 -115.14940 2132 ft 2 kts 310°
2026-05-06 22:50 36.08100 -115.15008 2135 ft 26 kts 274°
2026-05-06 22:50 36.08090 -115.15185 2142 ft 19 kts 266°
2026-05-06 22:51 36.08128 -115.15368 2144 ft 25 kts 302°
2026-05-06 22:51 36.08308 -115.15475 2136 ft 32 kts 356°
2026-05-06 22:51 36.08462 -115.15454 2129 ft 3 kts 13°
2026-05-06 22:51 36.08481 -115.15449 2127 ft 0 kts 11°